Weather History for Eastman, GA

Change the Weather History Date:

Saturday, April 6, 2013

  Actual Average Record
Temperature  
Mean Temperature 58 °F -  
Max Temperature 77 °F 72 °F 77 °F (2013)
Min Temperature 38 °F 47 °F 38 °F (2013)
Degree Days  
Heating Degree Days 8    
Growing Degree Days 8 (Base 50)    
Moisture  
Dew Point 40 °F    
Average Humidity 60    
Maximum Humidity 97    
Minimum Humidity 21    
Precipitation  
Precipitation 0.00 in - - ()
Sea Level Pressure  
Sea Level Pressure 30.16 in    
Wind  
Wind Speed 2 mph (ESE)    
Max Wind Speed 10 mph    
Max Gust Speed 16 mph    
Visibility 7 miles    
Events Fog    
Averages and records for this station are not official NWS values.
T = Trace of Precipitation, MM = Missing Value Source: NWS Daily Summary

Daily Weather History Graph

Daily Weather History Graph

Search for Another Location

Airport:

Trip Planner

Search our weather history database for the weather conditions in past years. The results will help you decide how hot, cold, wet, or windy it might be!

Date:

Astronomy

Apr. 06, 2013 Rise Set
Actual Time 7:14 AM EDT 7:55 PM EDT
Civil Twilight 6:49 AM EDT 8:20 PM EDT
Nautical Twilight 6:20 AM EDT 8:50 PM EDT
Astronomical Twilight 5:50 AM EDT 9:19 PM EDT
Moon 4:44 AM EDT (4/6) 4:34 PM EDT (4/6)
Length of Visible Light 13h 31m
Length of Day
12h 41m
Waning Crescent, 15% of the Moon is Illuminated
Apr 6
Waning Crescent
Apr 10
New
Apr 18
First Quarter
Apr 25
Full
May 2
Last Quarter

Hourly Weather History & Observations

Time (EDT) Temp. Dew Point Humidity Pressure Visibility Wind Dir Wind Speed Gust Speed Precip Events Conditions
12:15 AM 44.6 °F 43.3 °F 95% 30.09 in 0.8 mi Calm Calm - N/A   Mist
12:35 AM 44.2 °F 43.0 °F 95% 30.10 in 1.2 mi Calm Calm - N/A   Mist
12:55 AM 44.8 °F 43.7 °F 96% 30.10 in 2.0 mi Calm Calm - N/A   Clear
1:15 AM 42.8 °F 41.7 °F 96% 30.10 in 0.5 mi Calm Calm - N/A Fog Fog
1:35 AM 43.3 °F 42.3 °F 96% 30.11 in 0.8 mi Calm Calm - N/A   Mist
1:55 AM 42.4 °F 41.4 °F 96% 30.11 in 1.0 mi Calm Calm - N/A   Mist
2:15 AM 41.9 °F 40.8 °F 96% 30.12 in 0.2 mi Calm Calm - N/A Fog Fog
2:35 AM 41.2 °F 40.1 °F 96% 30.12 in 1.0 mi Calm Calm - N/A   Mist
2:55 AM 42.4 °F 41.4 °F 96% 30.12 in 7.0 mi Calm Calm - N/A   Clear
3:15 AM 43.3 °F 42.3 °F 96% 30.12 in 10.0 mi Calm Calm - N/A   Clear
3:35 AM 43.2 °F 42.1 °F 96% 30.12 in 0.5 mi Calm Calm - N/A Fog Fog
3:55 AM 42.1 °F 40.8 °F 95% 30.12 in 0.5 mi Calm Calm - N/A Fog Fog
4:15 AM 41.9 °F 40.8 °F 96% 30.13 in 0.8 mi Calm Calm - N/A   Mist
4:35 AM 42.1 °F 41.2 °F 97% 30.12 in 0.2 mi Calm Calm - N/A Fog Fog
4:55 AM 42.1 °F 41.0 °F 96% 30.13 in 1.5 mi Calm Calm - N/A   Scattered Clouds
5:15 AM 41.0 °F 39.7 °F 95% 30.13 in 0.8 mi Calm Calm - N/A   Mist
5:35 AM 39.6 °F 38.7 °F 97% 30.13 in 0.8 mi Calm Calm - N/A   Mist
5:55 AM 40.8 °F 39.7 °F 96% 30.13 in 1.0 mi Calm Calm - N/A   Mist
6:15 AM 40.6 °F 39.6 °F 96% 30.13 in 0.8 mi Calm Calm - N/A   Mist
6:35 AM 39.7 °F 38.8 °F 97% 30.14 in 0.5 mi Calm Calm - N/A Fog Fog
6:55 AM 40.1 °F 39.2 °F 97% 30.15 in 0.5 mi Calm Calm - N/A Fog Fog
7:15 AM 38.8 °F 37.9 °F 97% 30.16 in 2.5 mi Calm Calm - N/A   Clear
7:35 AM 38.3 °F 37.4 °F 97% 30.17 in 0.2 mi Calm Calm - N/A Fog Fog
7:55 AM 40.1 °F 39.2 °F 97% 30.18 in 3.0 mi Calm Calm - N/A   Clear
8:15 AM 43.0 °F 41.9 °F 96% 30.18 in 5.0 mi Calm Calm - N/A   Clear
8:35 AM 45.5 °F 44.2 °F 95% 30.19 in 10.0 mi Calm Calm - N/A   Clear
8:55 AM 48.7 °F 47.5 °F 95% 30.19 in 10.0 mi Calm Calm - N/A   Clear
9:15 AM 51.1 °F 48.9 °F 92% 30.19 in 10.0 mi NNW 3.5 mph - N/A   Clear
9:35 AM 53.6 °F 49.8 °F 87% 30.20 in 10.0 mi Calm Calm - N/A   Clear
9:55 AM 56.8 °F 50.2 °F 78% 30.20 in 10.0 mi Calm Calm - N/A   Clear
10:15 AM 59.9 °F 49.3 °F 68% 30.19 in 10.0 mi NE 3.5 mph - N/A   Clear
10:35 AM 63.0 °F 49.6 °F 62% 30.20 in 10.0 mi Calm Calm - N/A   Clear
10:55 AM 66.2 °F 45.3 °F 47% 30.21 in 10.0 mi ENE 4.6 mph - N/A   Clear
11:15 AM 67.6 °F 46.8 °F 47% 30.21 in 10.0 mi East 4.6 mph - N/A   Clear
11:35 AM 69.1 °F 39.2 °F 34% 30.21 in 2.0 mi East 9.2 mph - N/A   Haze
11:55 AM 69.8 °F 39.2 °F 33% 30.21 in 10.0 mi East 8.1 mph 16.1 mph N/A   Clear
12:15 PM 70.0 °F 36.3 °F 29% 30.21 in 10.0 mi East 9.2 mph - N/A   Clear
12:35 PM 71.8 °F 37.4 °F 29% 30.21 in 10.0 mi East 8.1 mph - N/A   Clear
12:55 PM 72.3 °F 36.1 °F 27% 30.21 in 10.0 mi ENE 10.4 mph - N/A   Clear
1:15 PM 72.0 °F 37.6 °F 29% 30.21 in 10.0 mi East 5.8 mph - N/A   Clear
1:35 PM 72.0 °F 38.1 °F 29% 30.20 in 10.0 mi ESE 5.8 mph - N/A   Clear
1:55 PM 72.1 °F 38.1 °F 29% 30.20 in 10.0 mi East 6.9 mph - N/A   Clear
2:15 PM 74.3 °F 35.8 °F 25% 30.19 in 10.0 mi ESE 5.8 mph - N/A   Clear
2:35 PM 73.8 °F 35.4 °F 25% 30.19 in 10.0 mi North 4.6 mph - N/A   Clear
2:55 PM 74.7 °F 36.1 °F 25% 30.18 in 10.0 mi East 6.9 mph - N/A   Clear
3:15 PM 75.4 °F 34.7 °F 23% 30.17 in 10.0 mi Calm Calm - N/A   Clear
3:35 PM 75.2 °F 32.9 °F 21% 30.16 in 10.0 mi Calm Calm - N/A   Clear
3:55 PM 75.9 °F 34.9 °F 22% 30.16 in 10.0 mi ENE 10.4 mph - N/A   Clear
4:15 PM 75.6 °F 34.3 °F 22% 30.15 in 10.0 mi East 6.9 mph - N/A   Clear
4:35 PM 75.4 °F 34.0 °F 22% 30.14 in 10.0 mi East 8.1 mph - N/A   Clear
4:55 PM 76.3 °F 34.3 °F 22% 30.14 in 10.0 mi East 5.8 mph - N/A   Clear
5:15 PM 77.0 °F 34.5 °F 21% 30.14 in 10.0 mi East 5.8 mph - N/A   Clear
5:35 PM 75.7 °F 33.6 °F 22% 30.14 in 10.0 mi SE 5.8 mph - N/A   Clear
5:55 PM 75.2 °F 33.3 °F 22% 30.14 in 10.0 mi Calm Calm - N/A   Clear
6:15 PM 74.3 °F 33.1 °F 22% 30.14 in 10.0 mi SSE 5.8 mph - N/A   Clear
6:35 PM 75.0 °F 34.0 °F 22% 30.15 in 10.0 mi ESE 4.6 mph - N/A   Clear
6:55 PM 73.8 °F 34.7 °F 24% 30.15 in 10.0 mi SE 4.6 mph - N/A   Clear
7:15 PM 72.9 °F 36.1 °F 26% 30.15 in 10.0 mi SSE 5.8 mph - N/A   Clear
7:35 PM 70.7 °F 36.5 °F 29% 30.15 in 10.0 mi SSE 4.6 mph - N/A   Clear
7:55 PM 69.1 °F 37.8 °F 32% 30.16 in 10.0 mi SSE 3.5 mph - N/A   Clear
8:15 PM 67.3 °F 38.7 °F 35% 30.16 in 10.0 mi SE 3.5 mph - N/A   Clear
8:35 PM 65.5 °F 42.3 °F 43% 30.16 in 10.0 mi ESE 4.6 mph - N/A   Clear
8:55 PM 60.8 °F 44.8 °F 56% 30.17 in 10.0 mi Calm Calm - N/A   Clear
9:15 PM 65.5 °F 41.9 °F 42% 30.19 in 10.0 mi SE 9.2 mph - N/A   Clear
9:35 PM 64.4 °F 41.9 °F 44% 30.20 in 10.0 mi SE 9.2 mph - N/A   Clear
9:55 PM 63.5 °F 42.1 °F 46% 30.20 in 10.0 mi SE 6.9 mph - N/A   Clear
10:15 PM 62.8 °F 41.0 °F 45% 30.20 in 10.0 mi SE 6.9 mph - N/A   Clear
10:35 PM 61.7 °F 40.6 °F 46% 30.21 in 10.0 mi SE 6.9 mph - N/A   Clear
10:55 PM 61.5 °F 40.6 °F 46% 30.21 in 10.0 mi SE 8.1 mph - N/A   Clear
11:15 PM 60.6 °F 41.5 °F 49% 30.21 in 10.0 mi SE 6.9 mph - N/A   Clear
11:35 PM 59.7 °F 42.3 °F 52% 30.20 in 10.0 mi SE 6.9 mph - N/A   Clear
11:55 PM 59.0 °F 42.6 °F 55% 30.20 in 10.0 mi SE 4.6 mph - N/A   Clear